This is the latest recevied weather packets stored in our database for station/object KA1BMF-13. If no packets are shown the sender has not sent any weather packets the latest 10 day(s).
| Time | Temp. | Humidity | Pressure | Rain* | Wind** | Luminosity | Snow |
|---|---|---|---|---|---|---|---|
| 1788135918 | 22.22° C | 89% | 1017.6 hPa | 0 mm | - | 0 W/m² | - |
| 1788135319 | 22.78° C | 89% | 1017.6 hPa | 0 mm | - | 0 W/m² | - |
| 1788134719 | 22.78° C | 87% | 1017.5 hPa | 0 mm | - | 0 W/m² | - |
| 1788134118 | 22.78° C | 86% | 1017.3 hPa | 0 mm | - | 0 W/m² | - |
| 1788133519 | 23.33° C | 85% | 1017.2 hPa | 0 mm | - | 0 W/m² | - |
| 1788132916 | 23.33° C | 85% | 1017.3 hPa | 0 mm | - | 0 W/m² | - |
| 1788132319 | 23.33° C | 84% | 1017.2 hPa | 0 mm | - | 0 W/m² | - |
| 1788131719 | 23.33° C | 83% | 1017.2 hPa | 0 mm | - | 1 W/m² | - |
| 1788131120 | 23.33° C | 83% | 1017.3 hPa | 0 mm | - | 2 W/m² | - |
| 1788130516 | 23.89° C | 82% | 1017.4 hPa | 0 mm | - | 5 W/m² | - |
| 1788129917 | 23.89° C | 81% | 1017.2 hPa | 0 mm | - | 9 W/m² | - |
| 1788129317 | 23.89° C | 80% | 1017.3 hPa | 0 mm | - | 14 W/m² | - |
| 1788128720 | 23.89° C | 80% | 1017.3 hPa | 0 mm | - | 32 W/m² | - |
| 1788128118 | 23.89° C | 79% | 1017.4 hPa | 0 mm | - | 35 W/m² | - |
| 1788127518 | 23.89° C | 79% | 1017.4 hPa | 0 mm | - | 76 W/m² | - |
| 1788126918 | 24.44° C | 79% | 1017.3 hPa | 0 mm | - | 55 W/m² | - |
| 1788126318 | 24.44° C | 78% | 1017.4 hPa | 0 mm | - | 48 W/m² | - |
| 1788125718 | 24.44° C | 77% | 1017.3 hPa | 0 mm | - | 56 W/m² | - |
| 1788125118 | 24.44° C | 76% | 1017.3 hPa | 0 mm | - | 79 W/m² | - |
| 1788124519 | 24.44° C | 76% | 1017.3 hPa | 0 mm | - | 97 W/m² | - |
| 1788123919 | 24.44° C | 75% | 1017.5 hPa | 0 mm | - | 108 W/m² | - |
| 1788123316 | 24.44° C | 74% | 1017.5 hPa | 0 mm | - | 109 W/m² | - |
| 1788122716 | 25° C | 72% | 1017.6 hPa | 0 mm | - | 97 W/m² | - |
| 1788122119 | 25° C | 72% | 1017.6 hPa | 0 mm | - | 103 W/m² | - |
| 1788121519 | 25° C | 71% | 1017.6 hPa | 0 mm | - | 175 W/m² | - |
* Rain latest hour (hover to see other rain measurements)
** Current wind speed in m/s (hover to see current wind gust speed)